This demonstration page uses our WeatherBlox Daily Observations layout. Learn more.

Left ArrowRight Arrow

Hourly Observations for June 16, 2020

Temp ( °F °C ) Dew Point ( °F °C ) Humidity (%) Winds ( mph kmh ) Pressure ( in mb ) Visibility ( mi km ) Precip ( " mm )
12:53 am 00:53 Clear 66 18.9 54 12.2 65 65 ENE 7 11 30.18 1022 10 16 0.00 0.00
1:53 am 01:53 Clear 64 17.8 54 12.2 70 70 E 9 15 30.19 1022 10 16 0.00 0.00
2:53 am 02:53 Mostly Clear 62 16.7 54 12.2 75 75 ENE 9 15 30.19 1022 10 16 0.00 0.00
3:31 am 03:31 Mostly Cloudy 62 16.7 53 11.7 73 73 ENE 6 9 30.19 1022 10 16 0.00 0.00
3:53 am 03:53 Cloudy 62 16.7 53 11.7 73 73 ENE 8 13 30.18 1022 10 16 0.00 0.00
4:53 am 04:53 Cloudy 62 16.7 53 11.7 73 73 E 9 15 30.19 1023 10 16 0.00 0.00
5:53 am 05:53 Cloudy 62 16.7 53 11.7 73 73 E 8 13 30.20 1023 10 16 0.00 0.00
6:53 am 06:53 Cloudy 62 16.7 53 11.7 73 73 NNE 5 7 30.20 1023 10 16 0.00 0.00
7:53 am 07:53 Mostly Cloudy 62 16.7 54 12.2 75 75 NE 6 9 30.21 1023 10 16 0.00 0.00
8:53 am 08:53 Mostly Cloudy 65 18.3 54 12.2 68 68 ENE 8 13 30.21 1023 10 16 0.00 0.00
9:00 am 09:00 Partly Cloudy 64 17.8 53 11.7 68 68 ENE 13 20 30.22 1023 10 16 0.00 0.00
9:11 am 09:11 Mostly Cloudy 65 18.3 54 12.2 68 68 ENE 10 17 30.22 1023 10 16 0.00 0.00
9:53 am 09:53 Mostly Cloudy 66 18.9 53 11.7 63 63 E 10 17 30.21 1023 10 16 0.00 0.00
10:53 am 10:53 Mostly Cloudy 67 19.4 54 12.2 63 63 NE 7 11 30.20 1023 10 16 0.00 0.00
11:11 am 11:11 Mostly Cloudy 68 20 54 12.2 61 61 NNE 9 15 30.20 1023 10 16 0.00 0.00
11:53 am 11:53 Cloudy 68 20 54 12.2 61 61 ENE 12 19 30.21 1023 10 16 0.00 0.00
12:53 pm 12:53 Cloudy 69 20.6 54 12.2 59 59 E 9 15 30.20 1023 10 16 0.00 0.00
1:53 pm 13:53 Cloudy 70 21.1 55 12.8 59 59 NNE 8 13 30.18 1022 10 16 0.00 0.00
2:53 pm 14:53 Partly Cloudy 74 23.3 55 12.8 52 52 NE 10 17 30.16 1021 10 16 0.00 0.00
3:53 pm 15:53 Mostly Cloudy 75 23.9 55 12.8 50 50 E 9 15 30.15 1021 10 16 0.00 0.00
4:53 pm 16:53 Mostly Cloudy 73 22.8 55 12.8 53 53 E 9 15 30.13 1020 10 16 0.00 0.00
5:53 pm 17:53 Partly Cloudy 74 23.3 54 12.2 50 50 ENE 6 9 30.11 1020 10 16 0.00 0.00
6:53 pm 18:53 Partly Cloudy 74 23.3 55 12.8 52 52 E 7 11 30.10 1019 10 16 0.00 0.00
7:53 pm 19:53 Mostly Cloudy 73 22.8 55 12.8 53 53 ENE 8 13 30.10 1019 10 16 0.00 0.00
8:53 pm 20:53 Cloudy 70 21.1 56 13.3 61 61 ESE 7 11 30.11 1020 10 16 0.00 0.00
9:53 pm 21:53 Cloudy 69 20.6 56 13.3 63 63 E 7 11 30.12 1020 10 16 0.00 0.00
10:53 pm 22:53 Cloudy 68 20 55 12.8 63 63 ENE 9 15 30.14 1021 10 16 0.00 0.00
11:53 pm 23:53 Cloudy with Light Rain 65 18.3 55 12.8 70 70 ENE 13 20 30.15 1021 10 16 0.00 0.00

Powered by AerisWeather